Location: Newark
(34.9500°N, 139.9667°E)
Time: 08:42:26
(UTC+00:00)

Altair - Pass Details

Date: 11 December 2019
Orbit: 1502 x 1682 km, 47.2° (Epoch: 26 January)

Event Time Altitude Azimuth Distance (km) Brightness Sun altitude
Exits shadow 19:05:22 44° 224° (SW) 1,971 7.7 -30.4°
Drops below altitude 10° 19:13:44 10° 159° (SSE) 3,682 9.8 -28.8°
Sets 19:16:59 0° 153° (SSE) 4,682 10.5 -28.1°
